Hourly Weather Roundup
Issued by NWS Central Illinois

Home | Current Version | Previous Version | Text Only | Print | Product List | Glossary On
Versions: 1 2 3 4 5 6 7 8 9 10 11 12 13 14 15 16 17 18 19 20 21 22 23 24 25 26 27 28 29 30 31 32 33 34 35 36 37 38 39 40 41 42 43 44 45 46 47 48 49 50
000
NZUS43 KILX 280510
HWRILX

AREA WEATHER ROUNDUP
NATIONAL WEATHER SERVICE, LINCOLN IL
1200 AM CDT WED SEP 28 2016


CITY           SKY/WX    TMP DP  RH WIND       PRES   REMARKS
BLOOMINGTON    PTCLDY    58  44  60 SW7       29.78F
CHAMPAIGN      MOCLDY    55  46  71 S6        29.79F
DANVILLE       PTCLDY    52  47  84 S3        29.76F
DECATUR        PTCLDY    59  48  67 SW6       29.79F
EFFINGHAM      CLOUDY    62  56  80 S5        29.83F
FLORA          CLEAR     57  53  85 SW7       29.84F
GALESBURG        N/A    N/A N/A N/A MISG        N/A
JACKSONVILLE   MOCLDY    61  49  65 SW7       29.80S
LACON          CLOUDY    56  46  67 CALM      29.75S
LAWRENCEVILLE  PTCLDY    60  51  72 SW7       29.83F
LITCHFIELD     PTCLDY    53  42  65 S3        29.82S
$$


CITY           SKY/WX    TMP DP  RH WIND       PRES   REMARKS
LINCOLN        CLOUDY    61  48  61 SW3       29.77F
MACOMB         CLOUDY    60  48  63 SW7       29.79F
MATTOON        CLOUDY    63  50  62 SW7       29.80F
MT CARMEL AP   CLEAR     62  51  67 SW6       29.84F
OLNEY-NOBLE AP PTCLDY    61  52  72 S3        29.84F
PARIS          CLOUDY    59  51  75 SW3       29.81F
PEORIA         CLOUDY    60  45  57 W3        29.76F
PONTIAC        CLOUDY    55  46  70 N3        29.77S
RANTOUL        PTCLDY    58  47  67 CALM      29.78F
ROBINSON       CLOUDY    63  52  67 SW9       29.83F
SPRINGFIELD    CLOUDY    59  50  72 SW3       29.79F
TAYLORVILLE    PTCLDY    56  51  82 S6        29.80F
$$

...REGIONAL REPORTS...


CITY           SKY/WX    TMP DP  RH WIND       PRES   REMARKS
CHICAGO O`HARE CLOUDY    54  45  71 NE8       29.78F
KANKAKEE       CLOUDY    52  45  79 CALM      29.77F
MOLINE         CLOUDY    62  40  44 VRB6      29.77S
MOUNT STERLING CLOUDY    59  49  68 SW5       29.79F
MOUNT VERNON   CLEAR     57  48  72 CALM      29.85F
PITTSFIELD     PTCLDY    62  51  67 CALM      29.82F
QUINCY         PTCLDY    58  50  75 SW7       29.80F
ROCKFORD       CLOUDY    53  45  74 NE10      29.81F
$$


CITY           SKY/WX    TMP DP  RH WIND       PRES   REMARKS
BURLINGTON     CLOUDY    63  46  54 W6        29.76F
CEDAR RAPIDS   CLOUDY    58  42  55 N9        29.82R
DES MOINES     MOCLDY    63  43  48 N7        29.84R
KIRKSVILLE     CLEAR     56  48  74 W5        29.83F
OTTUMWA        PTCLDY   N/A N/A N/A N9        29.81R
ST LOUIS       CLEAR     65  52  62 W6        29.84F
$$


CITY           SKY/WX    TMP DP  RH WIND       PRES   REMARKS
TERRE HAUTE    MOCLDY    61  50  67 SW6       29.82F
EVANSVILLE     CLEAR     59  52  77 SW5       29.88S
INDIANAPOLIS   MOCLDY    59  50  72 SW6       29.81F
LAFAYETTE      PTCLDY    50  45  83 CALM      29.79F
MADISON        LGT RAIN  48  46  93 CALM      29.78F
MILWAUKEE      LGT RAIN  51  47  86 NW6       29.78F
$$






USA.gov is the U.S. government's official web portal to all federal, state and local government web resources and services.